Location: Artiguedieu
(43.5000°N, 0.5454°E)
Time: 17:10:17
(UTC+00:00)

Transit 2A Rocket - All Passes

Search period start: 28 July 2021 00:00
Search period end: 07 August 2021 00:00
Orbit: 589 x 913 km, 66.7° (Epoch: 28 July)

Date Brightness Start Highest point End Pass type
(mag) Time Alt. Az. Time Alt. Az. Time Alt. Az.
28 Jul - 00:21:56 10° NW 00:27:23 57° WSW 00:33:11 10° SSE visible
28 Jul - 14:58:05 10° SSW 15:02:28 88° SE 15:07:14 10° NNE daylight
28 Jul - 16:43:04 10° WNW 16:45:49 16° NW 16:48:43 10° N daylight
28 Jul - 21:57:39 10° N 22:01:29 19° NE 22:05:31 10° E visible
28 Jul - 23:39:14 10° NNW 23:44:47 88° ENE 23:50:44 10° SSE visible
29 Jul - 01:23:39 10° WNW 01:26:45 15° WSW 01:29:57 10° SW visible
29 Jul - 14:15:45 10° S 14:19:56 47° ESE 14:24:27 10° NE daylight
29 Jul - 15:59:09 10° W 16:02:47 23° NW 16:06:38 10° N daylight
29 Jul - 21:15:45 10° N 21:18:22 13° NE 21:21:05 10° ENE visible
29 Jul - 22:56:40 10° NNW 23:02:05 56° NE 23:07:53 10° SE visible
30 Jul - 00:39:52 10° NW 00:44:25 25° WSW 00:49:10 10° SSW visible
30 Jul - 13:33:54 10° SSE 13:37:32 26° ESE 13:41:22 10° NE daylight
30 Jul - 15:15:44 10° WSW 15:19:52 37° NW 15:24:20 10° NNE daylight
30 Jul - 22:14:13 10° NNW 22:19:17 36° NE 22:24:40 10° ESE visible
30 Jul - 23:56:43 10° NW 00:01:57 42° WSW 00:07:30 10° S visible
31 Jul - 12:52:56 10° SE 12:55:14 14° ESE 12:57:37 10° ENE daylight
31 Jul - 14:32:43 10° SW 14:37:06 64° NW 14:41:51 10° NNE daylight
31 Jul - 16:18:49 10° WNW 16:20:46 12° NNW 16:22:46 10° N daylight
31 Jul - 21:31:56 10° N 21:36:23 25° NE 21:41:04 10° E visible
31 Jul - 23:13:52 10° NW 23:19:25 69° WSW 23:25:20 10° SSE visible
01 Aug - 01:00:37 10° W 01:01:10 10° WSW 01:01:42 10° WSW visible
01 Aug - 13:50:05 10° SSW 13:54:28 72° ESE 13:59:13 10° NE daylight
01 Aug - 15:34:28 10° W 15:37:38 18° NW 15:40:59 10° N daylight
01 Aug - 20:49:49 10° N 20:53:20 17° NE 20:57:01 10° ENE visible
01 Aug - 22:31:12 10° NNW 22:36:47 76° ENE 22:42:44 10° SE visible
02 Aug - 00:15:05 10° WNW 00:18:53 18° WSW 00:22:48 10° SSW visible
02 Aug - 13:07:54 10° S 13:11:58 38° ESE 13:16:21 10° NE daylight
02 Aug - 14:50:46 10° WSW 14:54:38 27° NW 14:58:48 10° NNE daylight
02 Aug - 20:08:06 10° N 20:10:10 12° NNE 20:12:17 10° NE visible
02 Aug - 21:48:41 10° NNW 21:54:02 48° NE 21:59:46 10° SE visible
02 Aug - 23:31:37 10° NW 23:36:30 30° WSW 23:41:37 10° S visible
03 Aug - 12:26:17 10° SSE 12:29:37 21° ESE 12:33:06 10° ENE daylight
03 Aug - 14:07:29 10° SW 14:11:46 45° NW 14:16:25 10° NNE daylight
03 Aug - 21:06:18 10° NNW 21:11:12 32° NE 21:16:24 10° ESE visible
03 Aug - 22:48:35 10° NW 22:54:01 50° WSW 22:59:46 10° S visible
04 Aug - 11:46:05 10° ESE 11:47:22 11° ESE 11:48:40 10° E daylight
04 Aug - 13:24:36 10° SW 13:29:02 79° WNW 13:33:53 10° NNE daylight
04 Aug - 15:10:01 10° WNW 15:12:33 14° NW 15:15:11 10° N daylight
04 Aug - 20:24:03 10° N 20:28:15 22° NE 20:32:39 10° E visible
04 Aug - 22:05:49 10° NNW 22:11:26 81° WSW 22:17:25 10° SSE visible
04 Aug - 23:50:49 10° WNW 23:53:18 13° WSW 23:55:50 10° SW visible
05 Aug - 12:42:09 10° SSW 12:46:28 57° ESE 12:51:09 10° NE daylight
05 Aug - 14:25:57 10° W 14:29:28 21° NW 14:33:11 10° N daylight
05 Aug - 19:42:00 10° N 19:45:09 15° NE 19:48:25 10° ENE visible
05 Aug - 21:23:13 10° NNW 21:28:46 64° ENE 21:34:41 10° SE visible
05 Aug - 23:06:41 10° WNW 23:10:59 22° WSW 23:15:28 10° SSW visible
06 Aug - 12:00:08 10° S 12:04:01 31° ESE 12:08:11 10° NE daylight
06 Aug - 13:42:25 10° WSW 13:46:31 32° NW 13:50:55 10° NNE daylight
06 Aug - 19:00:39 10° NNE 19:01:56 11° NNE 19:03:15 10° NE daylight
06 Aug - 20:40:44 10° NNW 20:45:59 41° NE 20:51:35 10° ESE visible
06 Aug - 22:23:24 10° NW 22:28:34 36° WSW 22:33:59 10° S visible
